SCP
0 0 0 0 0 0 0 0 0 0 0 0 0 0 0 0 0 0 0 0 0 0 0 0 0 0 0 0 0 0 0 0 0 0 0 0 0 -67 -286 -606 -5086 -11871 -15670
0 0 0 0 0 0 0 0 0 0 0 0 0 0 0 0 0 0 0 0 0 0 0 0 0 0 0 0 0 0 0 0 -171 -284 -171 0 0 -29 -196 -1447 -7720 -16556 -19044
0 0 0 0 0 0 0 0 0 0 0 0 0 0 0 0 0 0 0 0 0 0 0 0 0 0 0 0 0 0 0 0 -284 -569 -284 0 0 -15 -156 -2060 -7423 -10811 -11069
0 0 0 0 0 0 0 0 0 0 0 0 0 0 0 0 0 0 0 0 0 0 0 0 0 0 0 -114 -190 -114 0 0 -171 -284 -171 0 0 -24 -127 -1225 -2291 -2120 -1336
0 0 0 0 0 0 0 0 0 0 0 0 0 0 0 0 0 0 0 0 0 0 0 0 0 0 0 -285 -619 -915 -1774 -2013 -987 -72 0 0 0 -15 -24 -360 -917 -1120 -981
0 0 0 0 0 0 0 0 0 0 0 0 0 0 0 0 0 0 0 0 0 0 0 0 0 0 0 -273 -787 -2124 -4932 -5619 -2557 -224 0 0 0 -155 -389 -1067 -2381 -3002 -2673
0 0 0 0 0 0 0 0 0 0 0 0 0 0 0 0 0 0 0 0 0 0 0 0 0 0 -124 -704 -1657 -3104 -5274 -5372 -2499 -246 -18 -150 -386 -716 -1097 -1523 -2356 -3178 -3372
0 0 0 0 0 0 0 0 0 0 0 0 0 0 0 0 0 0 0 0 0 0 0 0 0 -297 -5149 -11559 -11386 -5462 -2335 -1783 -873 -616 -1202 -1428 -1325 -1507 -1618 -1465 -1325 -1520 -1695
0 0 0 0 0 0 0 0 0 0 0 0 0 0 0 0 0 0 0 0 0 0 0 -136 -1166 -5020 -18484 -31362 -23472 -6458 -380 0 -34 -909 -2289 -2274 -1481 -1333 -1474 -1099 -563 -346 -251
0 0 0 0 0 0 0 0 0 0 0 0 0 0 0 0 0 0 0 0 -50 -124 -150 -321 -2226 -8727 -23587 -31392 -19314 -4243 -105 -150 -139 -626 -1229 -1168 -615 -496 -593 -444 -175 -72 -58
0 0 0 0 0 0 0 0 0 0 0 0 0 0 0 0 0 -81 -565 -1475 -2049 -2102 -1711 -1166 -2657 -7286 -12681 -12457 -6559 -1516 -900 -741 -244 -80 -73 -23 0 0 0 0 0 0 0
0 0 0 0 0 0 0 0 0 0 0 0 0 0 0 0 0 -135 -1077 -3985 -7501 -8659 -8096 -6195 -5239 -5388 -4172 -1763 -876 -1261 -1655 -974 -259 -147 -180 -82 0 0 0 0 0 0 0
0 0 0 0 0 0 0 0 0 0 0 0 0 0 0 0 0 -81 -715 -4293 -10531 -13596 -12228 -10009 -6726 -4041 -2321 -727 -451 -989 -1052 -607 -295 -296 -257 -103 0 0 0 0 0 0 0
0 0 0 0 0 0 0 0 0 0 0 0 0 0 0 0 -30 -106 -274 -2513 -6962 -9040 -7976 -5561 -3175 -1106 -262 0 -135 -251 -228 -224 -293 -242 -143 -54 0 0 0 0 0 0 0
0 0 0 0 0 0 0 0 0 0 0 0 0 0 0 -149 -553 -999 -1142 -1694 -2583 -2764 -1699 -583 -47 0 -73 -151 -145 -69 -74 -139 -150 -78 -21 -6 0 0 0 0 0 0 0
0 0 0 0 0 0 0 0 0 0 0 0 0 0 0 -438 -1662 -2926 -3175 -2495 -1774 -1081 -355 -7 -29 -80 -232 -372 -286 -125 -67 -58 -32 -2 0 0 0 0 0 0 0 0 0
0 0 0 0 0 0 0 0 0 0 0 0 0 0 0 -582 -2500 -4512 -4608 -2870 -1236 -530 -210 -89 -262 -405 -427 -327 -192 -67 -36 -23 -14 0 0 0 0 0 0 0 0 0 0
0 0 0 0 0 0 0 0 0 0 0 0 0 0 0 -759 -2809 -4481 -3573 -1494 -313 0 -67 -291 -628 -772 -499 -166 -28 0 0 0 0 0 0 0 0 0 0 0 0 0 0
0 0 0 0 0 0 0 0 0 0 0 0 0 0 -41 -809 -2379 -2652 -1380 -291 0 -18 -150 -492 -826 -765 -413 -97 0 0 0 0 0 0 0 0 0 0 0 0 0 0 0
0 0 0 0 0 0 0 0 0 0 0 0 0 -19 -127 -574 -948 -757 -230 0 -6 -43 -187 -456 -605 -455 -184 -41 0 0 0 0 0 0 0 0 0 0 0 0 0 0 0
0 0 0 0 0 0 0 0 0 0 0 0 0 -32 -150 -191 -86 -19 -60 -123 -133 -101 -110 -194 -215 -136 -39 0 0 0 0 0 0 0 0 0 0 0 0 0 0 0 0
0 0 0 0 0 0 0 0 0 0 0 0 0 -19 -59 -65 -28 -34 -114 -223 -245 -109 -17 -12 -5 0 0 0 0 0 0 0 0 0 0 0 0 0 0 0 0 0 0
0 0 0 0 0 0 0 0 0 0 0 0 0 0 -3 -10 -11 -26 -65 -127 -125 -58 0 0 0 0 0 0 0 0 0 0 0 0 0 0 0 0 0 0 0 0 0
0 0 0 0 0 0 0 0 0 0 0 0 0 0 -6 -18 -19 -8 -2 -2 -1 0 0 0 0 0 0 0 0 0 -129 -289 -252 -74 0 0 0 0 0 0 0 0 0
0 0 0 0 0 0 0 0 0 0 0 0 0 0 -3 -9 -9 -4 0 0 0 0 0 0 0 0 0 0 0 -22 -282 -718 -745 -381 -99 0 0 0 0 0 0 0 0
0 0 0 0 0 0 0 0 0 0 0 0 0 0 0 0 0 0 0 0 0 0 0 0 0 0 0 0 0 -49 -341 -785 -1051 -757 -224 0 0 0 0 0 0 0 0
Wind_Speed
10 10 11 11 10 10 8 7 7 6 6 6 5 4 3 4 4 3 4 4 4 5 4 4 6 6 5 5 5 5 6 8 14 18 12 10 12 10 9 9 10 10 11
11 11 11 11 10 10 8 7 7 6 6 5 5 4 4 4 4 4 4 5 5 6 6 6 7 7 6 6 6 7 9 9 10 16 16 13 13 13 11 10 10 10 11
12 12 11 10 10 9 8 7 6 6 6 5 5 5 4 4 4 4 5 5 5 6 6 6 7 8 7 7 9 9 9 8 8 11 15 14 12 10 11 12 11 11 11
12 11 10 9 8 8 7 6 6 6 6 5 5 4 4 4 5 5 5 5 5 5 6 6 7 7 9 9 9 9 8 9 10 11 13 12 10 9 10 12 13 12 12
12 11 9 8 8 7 7 6 6 6 5 4 4 4 5 5 6 7 4 3 4 6 6 7 8 12 16 15 13 12 12 11 11 10 10 9 10 11 12 12 15 13 12
11 10 9 8 8 7 6 6 6 5 4 4 4 5 6 5 10 12 10 3 4 6 7 8 9 12 14 19 24 25 22 15 12 11 11 13 13 13 13 12 13 13 15
10 9 8 8 8 7 6 6 5 4 3 4 5 5 5 6 11 14 15 4 4 7 9 9 8 9 13 12 20 22 15 18 18 15 14 15 15 14 14 14 12 13 13
10 9 8 8 8 7 6 5 4 3 3 3 4 5 5 7 13 16 16 6 6 8 10 9 10 10 12 17 15 10 9 8 12 13 12 14 14 14 14 14 15 14 14
9 8 7 8 8 7 6 4 2 2 3 3 3 5 6 7 14 17 15 5 7 9 9 9 10 10 18 26 17 12 10 10 15 19 18 21 26 25 20 12 11 12 14
8 8 8 8 8 6 5 3 2 2 2 4 5 5 6 7 13 18 15 6 7 8 7 7 12 16 23 26 18 11 11 13 11 8 12 15 16 16 20 14 11 12 13
9 9 8 8 7 5 4 2 2 3 4 5 5 5 6 7 11 17 17 8 8 8 7 6 7 19 24 26 20 11 14 15 11 10 10 10 10 10 10 10 10 10 13
9 9 8 6 5 5 4 3 3 4 4 5 5 5 5 6 11 15 18 17 17 10 7 7 9 21 24 22 17 19 23 17 9 9 9 10 10 10 11 12 13 13 13
9 8 6 6 5 4 4 4 3 3 3 4 5 6 6 6 7 15 18 20 19 13 9 14 17 20 19 14 18 21 16 8 8 9 10 10 10 11 12 12 12 13 14
8 6 5 5 4 4 3 3 2 3 4 5 5 6 7 7 7 9 10 10 12 10 10 9 14 15 13 13 12 11 8 9 10 9 9 10 11 11 10 11 11 12 13
7 6 4 4 3 2 2 2 3 3 4 5 5 6 7 8 11 16 14 11 10 13 13 6 7 8 8 8 8 9 8 9 9 9 9 11 11 11 11 11 10 11 10
6 4 3 3 2 2 3 4 7 8 12 13 13 11 9 13 18 20 20 20 21 20 10 7 8 8 9 9 10 10 10 10 9 10 9 10 10 11 12 11 10 10 10
5 4 3 2 2 2 3 3 6 8 10 12 14 15 15 15 18 19 19 20 17 14 7 7 8 8 9 9 9 10 10 10 11 9 10 10 10 10 13 11 10 10 10
5 5 3 1 1 1 2 3 3 5 7 8 12 15 16 18 18 18 19 14 9 8 7 8 8 9 9 10 10 10 10 10 10 9 9 10 10 10 10 10 10 10 10
4 2 2 1 1 2 2 3 3 4 5 6 8 10 14 17 17 16 14 7 7 8 8 8 8 9 9 10 10 10 10 11 12 10 10 10 10 10 10 10 10 14 13
3 3 2 0 2 2 3 3 3 4 5 6 7 7 10 10 8 8 7 7 7 8 8 8 9 9 10 10 10 10 10 11 11 10 10 10 9 10 10 10 10 10 9
2 2 3 2 2 3 3 3 4 5 5 6 7 9 16 10 7 8 7 7 7 8 9 9 9 10 10 10 10 10 11 10 10 10 10 10 9 9 10 9 10 9 7
1 1 2 2 3 3 3 3 4 5 6 7 7 10 16 9 6 7 8 8 8 8 8 9 10 10 10 10 10 10 11 11 11 10 10 10 9 9 9 9 9 7 6
1 1 2 2 3 5 5 4 5 5 6 7 7 8 8 7 7 8 8 8 9 9 9 9 10 11 11 10 10 10 11 11 11 12 12 11 10 10 9 8 8 6 4
1 2 2 3 4 4 4 5 5 7 8 8 8 8 8 8 8 9 9 9 9 9 10 10 11 13 15 13 11 10 10 12 12 13 14 10 8 8 8 7 6 5 4
2 2 3 3 4 5 6 6 6 6 7 8 8 8 9 9 9 9 9 9 9 10 11 11 11 13 17 19 18 16 19 25 21 12 7 6 7 7 7 6 4 4 4
2 2 3 3 4 4 5 6 6 7 8 8 8 8 9 9 9 9 9 9 10 11 12 12 14 17 18 17 19 23 27 28 20 13 7 5 6 6 6 4 4 3 3
Wind_Direction
113 114 113 110 108 105 105 108 106 97 93 89 83 68 42 24 13 7 348 328 331 318 303 288 275 261 247 252 257 259 260 262 278 291 296 295 288 287 286 277 270 266 277
114 112 110 109 107 105 105 105 105 102 96 90 78 60 35 16 9 5 338 329 326 313 304 301 291 282 265 263 270 269 264 261 272 288 296 300 296 297 293 283 278 273 267
113 113 110 109 108 108 109 108 106 103 90 76 64 47 25 5 356 338 327 322 315 306 304 301 293 287 282 279 276 274 272 273 272 280 290 296 297 298 294 289 287 280 274
114 115 113 111 113 115 114 111 104 96 82 67 57 44 16 355 342 329 325 318 322 321 309 297 292 289 284 279 279 285 295 294 287 283 283 289 297 298 296 299 298 291 288
116 114 112 113 114 114 111 107 98 85 76 65 48 25 11 355 337 323 316 326 331 310 298 295 293 297 304 308 310 309 303 296 292 291 299 303 304 305 301 299 294 296 289
114 114 116 117 115 112 109 104 92 79 66 51 26 11 1 342 325 328 329 322 307 303 297 288 282 290 298 309 310 306 306 308 313 309 303 302 302 298 294 294 293 300 302
112 115 119 119 114 109 105 96 82 68 50 35 15 360 334 321 327 331 325 314 288 290 285 284 290 297 306 296 294 299 302 309 307 303 297 290 289 290 291 294 294 292 293
113 117 120 113 106 102 93 84 74 54 33 14 347 336 330 328 331 328 323 314 285 276 276 279 286 292 291 297 305 311 301 284 288 290 286 286 288 294 296 298 298 292 287
116 116 113 108 103 97 89 81 69 46 16 337 326 336 333 317 325 330 324 298 279 275 276 278 283 286 299 314 322 315 309 301 300 302 302 305 306 307 307 304 300 298 296
115 108 100 99 100 99 95 79 50 24 345 339 334 329 316 313 323 326 321 305 288 288 280 266 287 307 316 323 325 326 317 307 306 309 309 303 302 299 304 306 300 294 296
105 98 94 95 97 97 87 68 37 10 358 348 322 307 307 309 312 320 323 318 306 306 308 302 296 309 322 329 330 323 306 316 332 321 307 302 300 303 304 300 292 288 291
101 97 95 91 88 86 76 48 29 17 352 329 316 309 298 293 303 318 322 320 318 318 312 298 302 321 329 330 328 319 326 336 324 308 305 306 309 305 302 299 294 286 280
100 99 100 92 77 68 56 33 16 359 337 319 313 305 297 292 289 303 308 310 316 316 308 315 326 329 331 330 323 326 331 321 309 307 309 307 302 299 298 299 299 296 290
107 106 101 89 74 48 32 21 357 338 326 311 300 293 285 285 279 278 279 290 298 300 308 323 329 331 328 323 320 319 315 311 312 310 305 302 303 303 305 308 306 307 306
108 103 96 89 75 42 11 343 328 300 292 301 288 281 290 291 291 304 307 305 307 320 328 330 322 321 319 316 315 315 314 313 310 306 304 304 305 308 307 308 305 306 304
112 110 106 93 65 33 3 342 337 325 325 327 324 316 300 299 307 309 313 322 327 329 327 317 316 316 313 314 315 314 313 312 308 306 302 300 302 305 308 309 308 305 305
114 111 91 75 45 14 353 333 321 324 328 330 331 327 319 315 313 313 324 326 327 328 317 309 309 309 310 309 307 306 306 306 306 301 299 299 301 303 306 307 307 307 306
96 92 88 70 24 321 304 303 302 307 316 320 325 325 324 322 318 326 331 327 318 317 309 308 308 308 306 304 303 305 305 305 303 300 300 301 301 300 302 304 305 306 308
92 86 93 61 310 301 304 301 299 303 304 303 307 315 321 319 323 330 331 321 309 308 309 309 307 305 302 301 302 303 302 301 304 305 301 298 298 299 299 300 301 306 314
68 33 44 359 303 303 298 300 308 309 303 303 308 313 309 313 325 321 319 313 307 306 308 307 306 304 301 301 301 301 301 303 304 301 298 297 297 297 296 298 299 302 305
74 2 347 330 301 301 302 308 308 301 299 302 304 309 320 333 322 313 312 310 308 309 308 306 304 301 299 297 298 298 298 298 298 297 295 295 296 297 297 296 295 297 304
69 324 310 312 317 313 310 314 305 300 301 300 301 307 321 326 312 310 308 308 308 307 304 300 297 296 295 296 296 296 296 296 297 295 293 294 294 294 295 294 296 308 320
37 341 334 332 325 323 323 309 300 301 299 299 301 308 315 314 313 310 307 308 307 305 302 298 296 296 296 295 293 289 288 289 290 290 289 291 291 290 288 293 308 319 322
39 1 344 336 325 320 313 309 308 309 310 309 309 311 312 311 311 307 305 304 303 302 299 298 296 295 297 300 299 296 289 287 284 278 276 275 284 294 301 311 320 325 321
33 3 346 330 318 313 311 308 302 302 307 310 310 310 310 310 306 303 302 303 303 303 303 302 298 298 300 301 301 300 300 305 308 307 308 309 303 302 304 313 324 329 332
12 355 334 317 306 302 301 301 306 310 308 305 306 306 305 303 302 303 303 304 304 304 303 301 301 302 304 303 303 308 313 317 321 331 337 315 305 303 311 325 339 349 339